Location: Chenereilles
(45.4866°N, 4.0790°E)
Time: 23:42:34
(UTC+00:00)

Cosmos 1633 - Pass Details

Date: 12 November 2019
Orbit: 465 x 482 km, 82.5° (Epoch: 06 December)

Event Time Altitude Azimuth Distance (km) Brightness Sun altitude
Rises 17:45:28 0° 357° (N) 2,558 6.2 -15.6°
Reaches altitude 10° 17:47:39 10° 5° (N) 1,673 5.1 -16.0°
Maximum altitude 17:51:09 42° 77° (ENE) 705 2.9 -16.6°
Enters shadow 17:52:49 25° 133° (SE) 1,009 3.8 -16.9°
